International Virtual Aviation Organisation

Russian Federation and Kazakhstan MCD

 

Карточка аэропорта USSS

Внимание!
Информация на этой странице в стадии наполнения.
Если вы не увидели какой-то информации, или заметили неточность - пожалуйста сообщите нам!
Спасибо!
Команда RU-STAFF
Название аэропортаКольцово
Название аэропорта (англ.)Koltsovo
Превышение766 ft. (233.5 m.)
Координаты56°44.586', 60°48.186'
Высота перехода900m
Эшелон переходаQFE>=739mm:FL050; QFE 712mm-738mm:FL060; QFE<=712mm:FL70
Коды ответчика5520-5557
Зона ОрВДЕкатеринбург РПИ (USSS)
Данные METARUSSS 221430Z 23004MPS 9999 FEW041 M13/M17 Q1013 R26R/410140 NOSIG RMK QFE739/0986
Проноз погоды (TAF)USSS 221359Z 2215/2315 23004MPS 5000 BR SCT015 TEMPO 2215/2216 24007MPS 3100 -SN BECMG 2216/2217 3100 -SN BR BKN011
NOTAMshow/hide NOTAM
AWOS   TABLE

Информация о ВПП

ВПП Длина ВПП (м.) Покрытие Курс ВПП Частота ILS
08L3004Асфальтобетон76111.7
26R3004Асфальтобетон256110.5
08R3026Бетон80109.9
26L3026Бетон260109.5

Диспетчерские позиции

Позывной Наименование органа УВД Частота
USSS_APPКольцово-Подход125.9
USSS_R_APPКольцово-Круг118.7
USSS_TWRКольцово-Старт120.0
USSS_GNDКольцово-Руление119.0
USSSFM1Машина сопровождения119.000



Спутниковое изображение